Location: Gälforsberget
(66.6500°N, 22.4167°E)
Time: 07:51:34
(UTC+00:00)

Cosmos 1190 Rocket - Pass Details

Date: 11 April 2026
Orbit: 752 x 776 km, 74.1° (Epoch: 13 May)

Event Time Altitude Azimuth Distance (km) Brightness Sun altitude
Rises 20:48:47 0° 311° (NW) 3,267 8.6 -12.5°
Reaches altitude 10° 20:51:12 10° 314° (NW) 2,339 7.7 -12.6°
Maximum altitude 20:56:29 65° 37° (NE) 860 4.4 -12.8°
Enters shadow 21:01:31 11° 119° (ESE) 2,237 5.9 -13.0°
